Home   Weather   Ireland   Navan   Past weeks
Flag for Ireland

Past Weather in Navan, Ireland — Yesterday and Last 2 Weeks

Currently: 46 °F. Passing clouds. (Weather station: Dublin Airport, Ireland). See more current weather

Past Weather in Navan — Graph

°F

Navan Temperature Yesterday

Maximum temperature yesterday: 54 °F (at 3:00 pm)
Minimum temperature yesterday: 37 °F (at 12:30 am)
Average temperature yesterday: 47 °F

High & Low Weather Summary for the Past Weeks

 TemperatureHumidityPressure
High63 °F (Apr 11, 1:00 pm)100% (Apr 8, 11:00 am)30.51 "Hg (Apr 8, 11:00 am)
Low30 °F (Apr 20, 3:30 am)47% (Apr 9, 4:30 pm)29.45 "Hg (Apr 8, 4:00 pm)
Average48 °F82%30.09 "Hg
* Reported Apr 8 12:00 am — Apr 23 12:00 am, Navan. Weather by CustomWeather, © 2024

Note: Actual official high and low records may vary slightly from our data, if they occured in-between our weather recording intervals... More about our weather records

Navan Weather History for the Previous 24 Hours

Scroll right to see more
 ConditionsComfort  
Time TempWeatherWind HumidityBarometerVisibility
12:00 am
Tue, Apr 23
48 °FPassing clouds.13 mph82%30.36 "HgN/A
11:30 pm
Mon, Apr 22
50 °FPassing clouds.10 mph76%30.36 "HgN/A
11:00 pm50 °FPartly cloudy.16 mph76%30.36 "HgN/A
10:30 pm50 °FPartly cloudy.14 mph82%30.39 "HgN/A
10:00 pm50 °FPartly cloudy.13 mph82%30.39 "HgN/A
9:30 pm50 °FPartly cloudy.12 mph82%30.39 "HgN/A
9:00 pm52 °FPartly cloudy.14 mph82%30.39 "HgN/A
8:30 pm52 °FBroken clouds.6 mph82%30.36 "HgN/A
8:00 pm52 °FBroken clouds.8 mph82%30.36 "HgN/A
7:30 pm54 °FBroken clouds.9 mph77%30.36 "HgN/A
7:00 pm54 °FBroken clouds.12 mph77%30.36 "HgN/A
6:30 pm52 °FBroken clouds.12 mph82%30.36 "HgN/A
6:00 pm54 °FPartly sunny.13 mph77%30.39 "HgN/A
5:30 pm54 °FPartly sunny.10 mph77%30.39 "HgN/A
5:00 pm54 °FBroken clouds.13 mph77%30.39 "HgN/A
4:30 pm54 °FBroken clouds.10 mph77%30.39 "HgN/A
4:00 pm52 °FPartly sunny.14 mph82%30.39 "HgN/A
3:00 pm54 °FBroken clouds.13 mph77%30.39 "HgN/A
2:00 pm52 °FPartly sunny.16 mph82%30.42 "HgN/A
1:30 pm52 °FPartly sunny.12 mph77%30.42 "HgN/A
1:00 pm52 °FPartly sunny.12 mph77%30.42 "HgN/A
12:30 pm50 °FPartly sunny.14 mph82%30.42 "HgN/A
12:00 pm50 °FPartly sunny.14 mph82%30.42 "HgN/A
11:30 am50 °FBroken clouds.12 mph82%30.45 "HgN/A
11:00 am50 °FBroken clouds.13 mph76%30.45 "HgN/A
10:00 am52 °FBroken clouds.15 mph77%30.45 "HgN/A
9:30 am50 °FPartly sunny.13 mph82%30.45 "HgN/A
8:00 am43 °FPartly sunny.6 mph100%30.45 "HgN/A
7:30 am41 °FBroken clouds.7 mph100%30.45 "HgN/A
7:00 am41 °FScattered clouds.8 mph93%30.45 "HgN/A
6:30 am39 °FScattered clouds.7 mph93%30.45 "HgN/A
6:00 am39 °FPassing clouds.7 mph100%30.45 "HgN/A
5:30 am39 °FPassing clouds.7 mph100%30.45 "HgN/A
5:00 am39 °FPassing clouds.7 mph100%30.48 "HgN/A
4:30 am37 °FPassing clouds.5 mph93%30.48 "HgN/A
4:00 am37 °FPassing clouds.3 mph100%30.48 "HgN/A
3:30 am37 °FPassing clouds.5 mph100%30.48 "HgN/A
3:00 am39 °FPassing clouds.2 mph100%30.48 "HgN/A
2:30 am39 °FPassing clouds.5 mph100%30.48 "HgN/A
2:00 am37 °FPassing clouds.1 mph93%30.48 "HgN/A
1:30 am37 °FPassing clouds.1 mph100%30.48 "HgN/A
1:00 am39 °FPassing clouds.No wind100%30.48 "HgN/A
Weather by CustomWeather, © 2024

See weather overview